Probability
0 0 0 0 0 0 0 0 0 0 0 0 0 0 0 0 0 0 0 0 0 0 0 0 0 0 0 0 0 0 0 0 0 0 1 2 2 1
0 0 0 0 0 0 0 0 0 0 0 0 0 0 0 0 0 0 0 0 0 0 0 0 0 0 0 0 0 0 0 0 0 0 0 1 1 0
0 0 0 0 0 0 0 0 0 0 0 0 0 0 0 0 0 0 0 0 0 0 0 0 0 0 0 0 0 0 0 0 0 0 0 0 0 0
0 0 0 0 0 0 0 0 0 0 0 0 0 0 1 1 1 0 0 0 0 0 0 0 0 0 0 0 0 0 0 0 0 0 0 0 0 0
0 0 0 0 0 0 0 0 0 0 0 0 0 0 1 2 2 1 0 0 0 0 0 0 0 0 0 0 0 0 0 0 0 0 0 0 0 0
0 0 0 0 0 0 0 0 0 0 0 0 0 0 1 2 3 2 0 0 0 0 0 0 0 0 0 0 0 0 0 0 0 0 0 0 0 0
0 0 0 0 0 0 0 0 0 0 0 0 0 0 1 2 3 1 0 0 0 0 0 0 0 0 0 0 0 0 0 0 0 0 0 0 0 0
0 0 0 0 0 0 0 0 0 0 0 0 0 0 1 2 2 1 0 0 0 0 0 0 0 0 0 0 0 0 0 0 0 0 0 0 0 0
0 0 0 0 0 0 0 0 0 0 0 0 0 0 1 1 1 0 0 0 0 0 0 0 0 0 0 0 0 0 0 0 0 0 0 0 0 0
0 0 0 0 0 0 0 0 0 0 0 0 0 0 0 0 0 0 0 0 0 0 0 0 0 0 0 0 0 0 0 0 0 0 0 0 0 0
0 0 0 0 0 0 0 0 0 0 0 0 0 0 0 0 0 0 0 0 0 0 0 0 0 0 0 0 0 0 0 0 0 0 0 0 0 0
0 0 0 0 0 0 0 0 0 0 0 0 0 0 0 0 0 0 0 0 0 0 0 0 0 0 0 0 0 0 0 0 0 0 0 0 0 0
0 0 0 0 0 0 0 0 0 0 0 0 0 0 0 0 0 0 0 0 0 0 0 0 0 0 0 0 0 0 0 0 0 0 0 0 0 0
0 0 0 0 0 0 0 0 0 0 0 0 0 0 0 0 0 0 0 0 0 0 0 0 0 0 0 0 0 0 0 0 0 0 0 0 0 0
0 0 0 0 0 0 0 0 0 0 0 0 0 0 0 0 0 0 0 0 0 0 0 0 0 0 0 0 0 0 0 0 0 0 0 0 0 0
0 0 0 0 0 0 0 0 0 0 0 0 0 0 0 0 0 0 0 0 0 0 0 0 0 0 0 0 0 0 0 0 0 0 0 0 0 0
0 0 0 0 0 0 0 0 0 0 0 0 0 0 0 0 0 0 0 0 0 0 0 0 0 0 0 0 0 0 0 0 0 0 0 0 0 0
0 0 0 0 0 0 0 0 0 0 0 0 0 0 0 0 0 0 0 0 0 0 0 0 0 0 0 0 0 0 0 0 0 0 0 0 0 0
0 0 0 0 0 0 0 0 0 0 0 0 0 0 0 0 0 0 0 0 0 0 0 0 0 0 0 0 0 0 0 0 0 0 0 0 0 0
0 0 0 0 0 0 0 0 0 0 0 0 0 0 0 0 0 0 0 0 0 0 0 0 0 0 0 0 0 0 0 0 0 0 0 0 0 0
0 0 0 0 0 0 0 0 0 0 0 0 0 0 0 0 0 0 0 0 0 0 0 0 0 0 0 0 0 0 0 0 0 0 0 0 0 0
0 0 0 0 0 0 0 0 0 0 0 0 0 0 0 0 0 0 0 0 0 0 0 0 0 0 0 0 0 0 0 0 0 0 0 0 0 0
0 0 0 0 0 0 0 0 0 0 0 0 0 0 0 0 0 0 0 0 0 0 0 0 0 0 0 0 0 0 0 0 0 0 0 0 0 0
Wind_Speed
4 3 3 3 2 2 2 3 3 3 4 3 2 2 2 2 3 2 3 7 8 9 9 9 9 9 10 10 10 11 11 12 12 13 13 13 13 14
3 3 3 2 2 2 3 2 3 3 4 2 2 2 3 3 4 3 3 7 8 9 9 9 9 9 9 9 10 10 10 11 12 12 13 13 14 14
3 3 4 3 2 2 2 3 3 3 4 3 2 2 2 2 3 2 3 3 4 8 9 9 9 9 9 9 9 10 10 11 12 12 13 14 14 15
3 3 4 3 3 2 3 3 3 3 3 4 3 3 3 3 2 3 3 3 3 7 8 8 8 8 9 9 9 10 10 10 11 12 13 13 14 15
4 4 4 3 3 3 3 3 3 3 3 3 4 3 2 2 2 3 3 3 4 5 6 7 8 9 9 9 9 9 9 10 10 11 12 12 13 14
3 3 3 4 4 4 3 3 2 2 2 3 3 3 2 2 2 2 3 3 3 4 4 6 7 8 8 9 9 9 9 10 10 11 11 12 11 12
3 3 3 4 5 4 3 3 3 2 2 2 2 2 2 2 2 2 3 4 4 2 3 4 4 3 4 6 8 9 9 9 10 11 11 11 11 11
3 2 2 3 4 5 5 4 4 3 3 3 3 4 4 3 2 2 2 3 4 2 3 5 3 3 4 3 7 9 9 9 10 10 11 11 11 10
2 2 2 2 3 3 3 3 4 5 5 4 4 4 4 3 2 3 3 3 4 4 3 4 3 4 3 5 9 9 8 9 10 10 11 11 10 10
2 2 2 2 3 3 2 2 2 3 4 3 4 4 4 3 3 3 3 3 3 3 2 3 3 4 5 4 7 7 8 9 10 10 10 10 10 10
2 2 2 3 4 3 2 2 3 3 3 4 5 4 5 5 3 0 1 2 3 3 1 2 2 4 4 3 4 7 8 9 10 10 10 10 10 9
1 2 3 3 3 3 2 3 4 3 1 2 3 3 2 3 3 1 2 2 2 3 1 1 2 2 4 3 3 4 4 6 8 9 10 11 10 5
2 2 2 4 4 4 3 3 4 2 1 1 2 2 1 1 1 1 1 1 2 3 2 2 2 2 2 4 3 3 3 3 4 5 8 10 10 6
2 2 2 3 3 3 3 3 3 1 0 0 1 1 2 2 2 2 2 2 2 3 3 2 2 2 3 4 4 3 3 3 3 4 4 7 7 7
2 3 2 3 2 2 2 2 1 0 0 1 1 1 1 1 2 2 2 2 3 3 2 2 2 2 2 3 3 3 4 3 3 3 4 4 3 3
1 2 2 2 2 1 1 2 1 1 0 1 1 1 1 1 1 1 2 2 2 3 3 2 2 2 2 3 3 4 3 3 3 4 4 4 3 2
0 0 1 1 1 1 1 1 1 1 1 1 1 1 1 1 1 1 1 2 1 2 3 3 2 2 2 3 3 3 3 3 3 4 4 4 3 2
1 0 0 1 1 0 0 1 1 1 1 1 1 1 1 1 1 2 1 1 2 2 2 2 3 3 3 2 3 3 2 3 3 3 3 3 4 3
1 0 1 1 1 1 1 1 1 1 1 1 1 1 1 1 1 2 1 1 2 2 2 2 2 2 3 4 4 2 2 3 3 3 3 3 4 5
1 1 1 1 1 1 1 1 1 1 1 1 1 1 1 1 1 1 1 2 2 2 2 2 1 2 2 3 3 4 5 3 3 4 4 3 4 5
1 1 1 1 1 1 1 1 1 1 1 1 1 1 1 1 2 2 2 3 2 2 2 3 3 4 2 1 2 3 3 5 5 3 3 3 4 3
2 2 1 1 1 1 1 1 1 1 1 1 1 1 1 1 2 2 2 2 2 2 3 3 2 2 1 1 3 4 4 4 5 7 6 4 2 2
2 2 2 2 1 1 1 2 2 2 2 1 1 2 1 2 2 2 2 2 2 2 2 2 2 2 2 1 2 3 4 4 3 4 4 5 7 7
Wind_Direction
224 221 226 231 218 218 216 211 212 249 260 256 263 262 284 283 298 288 283 296 306 306 305 306 305 306 309 309 308 307 308 309 309 309 304 301 301 305
221 213 221 227 220 218 218 224 221 223 251 263 254 281 286 300 312 300 283 305 301 303 304 304 305 307 307 307 308 311 313 312 311 311 309 308 304 303
228 217 224 224 217 220 220 218 223 217 246 271 270 282 263 278 303 293 286 279 286 301 305 304 306 310 308 307 306 309 312 312 312 310 310 307 308 304
231 224 226 226 222 225 218 218 224 224 229 264 280 281 273 266 282 295 308 309 296 299 309 310 311 314 314 313 313 313 312 311 312 311 309 307 306 307
229 228 226 214 224 226 222 223 227 236 230 242 266 278 283 292 297 302 304 299 305 305 311 311 313 314 315 316 314 315 314 313 314 313 312 310 308 309
235 233 227 220 221 223 219 216 223 231 242 249 261 276 283 290 291 306 314 315 311 307 306 310 311 314 314 316 313 314 314 313 315 315 312 309 308 310
236 237 233 231 231 230 224 207 207 221 243 263 266 280 277 284 288 304 306 315 309 289 315 312 310 306 304 306 310 309 311 315 317 318 314 312 311 310
224 234 239 241 247 242 239 230 217 220 231 240 255 263 269 270 283 293 307 324 313 301 320 309 302 297 298 292 302 309 312 318 321 322 323 319 313 311
218 218 236 247 257 237 237 257 254 255 244 236 244 251 264 259 265 270 272 282 283 291 309 296 300 300 302 303 310 311 317 324 327 327 325 324 323 319
232 222 219 238 245 225 203 228 247 252 257 247 243 249 259 254 235 248 258 287 286 286 282 278 294 304 308 301 305 313 323 327 330 330 329 332 333 333
256 233 228 236 254 251 214 231 258 262 279 292 295 292 298 296 292 44 300 308 305 296 284 282 297 312 303 295 307 320 323 324 326 331 337 340 337 338
273 257 255 258 261 262 222 221 245 253 274 317 313 316 307 295 301 245 228 264 303 295 292 314 292 327 314 299 307 318 319 322 333 339 342 342 338 342
273 268 261 271 272 269 256 235 247 252 233 269 297 308 313 311 318 321 292 254 267 273 277 310 291 304 281 301 312 314 319 324 334 334 338 337 337 340
262 263 259 267 271 278 273 283 280 270 178 275 281 304 322 331 335 340 340 336 306 268 258 269 262 276 291 298 298 315 327 323 326 326 328 332 335 337
270 281 279 275 269 279 308 315 322 26 79 299 286 295 316 316 328 346 354 360 352 329 305 279 265 274 276 275 285 297 314 318 324 327 327 326 324 327
317 303 306 334 357 4 357 357 19 21 8 263 286 302 324 328 320 329 329 341 349 344 339 328 298 274 283 281 273 287 300 300 315 321 321 318 317 313
319 2 17 10 7 356 12 21 27 20 0 336 310 308 305 313 318 330 326 336 330 323 334 345 351 330 281 262 273 279 293 301 297 312 323 319 314 309
278 226 277 280 267 267 304 338 346 332 320 306 289 285 291 295 304 315 324 331 322 316 319 321 335 347 353 333 250 258 289 297 305 312 312 314 310 313
314 267 262 266 267 264 265 273 292 299 299 288 284 281 287 294 293 299 318 328 322 313 307 312 331 351 343 329 318 291 288 307 314 314 310 302 295 301
332 292 275 265 266 267 273 283 293 306 300 289 290 284 276 282 293 300 299 301 304 309 312 319 321 318 301 290 291 302 306 296 304 308 308 300 288 291
308 297 287 275 263 262 273 275 270 264 263 266 281 290 282 281 285 291 292 291 299 297 301 306 301 313 309 307 302 302 307 313 309 300 305 310 314 314
297 294 291 289 281 262 261 262 264 258 254 258 270 276 281 283 282 283 280 285 292 294 297 301 310 325 330 305 299 304 313 323 331 330 319 302 300 307
284 281 277 272 269 259 248 247 250 253 248 248 258 266 268 282 287 280 280 278 287 295 302 312 326 334 319 294 292 298 308 318 329 336 335 337 330 313